Location: Chaumontel
(49.1247°N, 2.4324°E)
Time: 07:45:07
(UTC+00:00)

Cosmos 1825 - Pass Details

Date: 03 February 2023
Orbit: 481 x 488 km, 82.5° (Epoch: 21 March)

Event Time Altitude Azimuth Distance (km) Brightness Sun altitude
Rises 18:14:28 0° 183° (S) 2,570 5.9 -14.0°
Reaches altitude 10° 18:16:34 10° 181° (S) 1,694 4.9 -14.4°
Maximum altitude 18:20:16 71° 97° (E) 532 2.0 -15.0°
Drops below altitude 10° 18:23:59 10° 14° (NNE) 1,711 4.6 -15.6°
Enters shadow 18:26:01 - 12° (NNE) 2,552 5.5 -15.9°
